This demonstration page uses our WeatherBlox Daily Observations layout. Learn more.

Left ArrowRight Arrow

39.12711, -84.51439

Hourly Observations for October 23, 2018

Temp ( °F °C ) Dew Point ( °F °C ) Humidity (%) Winds ( mph kmh ) Pressure ( in mb ) Visibility ( mi km ) Precip ( " mm )
12:53 am 00:53 Clear 47 8.3 37 2.8 69 69 N N/A 30.16 1021 10 16 N/A
1:53 am 01:53 Clear 48 8.9 38 3.3 68 68 SSW 7 11 30.15 1021 10 16 N/A
2:53 am 02:53 Clear 47 8.3 37 2.8 69 69 S 3 6 30.15 1021 10 16 N/A
3:53 am 03:53 Clear 47 8.3 38 3.3 71 71 S 3 6 30.15 1021 10 16 N/A
4:53 am 04:53 Clear 39 3.9 38 3.3 96 96 N N/A 30.14 1021 10 16 N/A
5:53 am 05:53 Clear 39 3.9 38 3.3 96 96 N N/A 30.15 1021 10 16 N/A
6:53 am 06:53 Clear 38 3.3 38 3.3 100 100 N N/A 30.16 1021 10 16 N/A
7:53 am 07:53 Clear 36 2.2 35 1.7 97 97 N N/A 30.17 1022 10 16 N/A
8:53 am 08:53 Sunny 41 5 40 4.4 96 96 N N/A 30.19 1023 10 16 N/A
9:53 am 09:53 Sunny 51 10.6 42 5.6 71 71 WSW 5 7 30.21 1023 10 16 N/A
10:53 am 10:53 Sunny 55 12.8 39 3.9 55 55 N N/A 30.22 1023 10 16 N/A
11:53 am 11:53 Sunny 59 15 39 3.9 48 48 W 6 9 30.22 1023 10 16 N/A
12:53 pm 12:53 Sunny 60 15.6 35 1.7 39 39 WNW 8 13 30.22 1023 10 16 N/A
1:53 pm 13:53 Sunny 62 16.7 34 1.1 35 35 NNW 9 15 30.19 1022 10 16 N/A
2:53 pm 14:53 Sunny 63 17.2 35 1.7 35 35 NW 12 19 30.18 1022 10 16 N/A
3:53 pm 15:53 Sunny 63 17.2 35 1.7 35 35 WNW 8 13 30.18 1022 10 16 N/A
4:53 pm 16:53 Sunny 62 16.7 35 1.7 37 37 N 13 20 30.19 1022 10 16 N/A
5:53 pm 17:53 Sunny 60 15.6 35 1.7 39 39 NNW 5 7 30.20 1023 10 16 N/A
6:53 pm 18:53 Clear 57 13.9 35 1.7 44 44 NNW 7 11 30.22 1023 10 16 N/A
7:53 pm 19:53 Clear 53 11.7 37 2.8 55 55 NNW 7 11 30.24 1024 10 16 N/A
8:53 pm 20:53 Clear 51 10.6 37 2.8 59 59 N 9 15 30.26 1025 10 16 N/A
9:53 pm 21:53 Clear 49 9.4 36 2.2 61 61 N 7 11 30.27 1025 10 16 N/A
10:53 pm 22:53 Clear 45 7.2 38 3.3 77 77 NE 3 6 30.29 1026 10 16 N/A
11:53 pm 23:53 Clear 42 5.6 38 3.3 85 85 N N/A 30.30 1026 10 16 N/A

Powered by AerisWeather